Location: ??????
(41.3164°N, 22.6615°E)
Time: 17:07:24
(UTC+00:00)

Cosmos 1300 - Pass Details

Date: 30 May 2022
Orbit: 506 x 508 km, 82.5° (Epoch: 01 July)

Event Time Altitude Azimuth Distance (km) Brightness Sun altitude
Rises 21:55:26 0° 9° (N) 2,619 7.4 -26.4°
Reaches altitude 10° 21:58:10 10° 30° (NNE) 1,728 6.0 -26.5°
Enters shadow 22:00:05 16° 60° (ENE) 1,369 5.0 -26.5°
